Location: Sawyer Lake
(45.2517°N, 88.7550°W)
Time: 18:46:48
(UTC-06:00)

Daily predictions for brighter satellites

Satellite Brightness Start Highest point End
(mag) Time Altitude Azimuth Time Altitude Azimuth Time Altitude Azimuth
Cosmos 2298 Rocket 4.0 17:03:28 10° NNW 17:08:47 74° ENE 17:14:05 10° SSE
Cosmos 2333 Rocket 3.9 17:06:14 10° SE 17:08:51 13° E 17:11:29 10° ENE
MSX 3.9 17:09:06 10° SSE 17:14:42 61° ENE 17:20:21 10° N
Cosmos 1464 Rocket 4.2 17:09:31 10° N 17:15:43 80° W 17:21:50 10° S
Cosmos 841 Rocket 4.5 17:13:38 10° SSE 17:18:02 28° E 17:22:28 10° NE
Cosmos 1766 Rocket 3.7 17:14:26 10° S 17:18:47 55° E 17:23:08 10° NNE
SJ-12 4.1 17:16:02 10° S 17:20:11 82° WSW 17:24:22 10° NNW
Cosmos 2228 Rocket 3.5 17:17:57 10° N 17:22:07 39° ENE 17:26:16 10° SE
Cosmos 468 Rocket 4.0 17:18:34 10° S 17:23:43 70° ESE 17:28:52 10° NNE
Cosmos 1937 Rocket 3.4 17:18:32 10° NNW 17:23:43 75° ENE 17:28:55 10° SSE
COSMO-SKYMED 1 3.5 17:21:10 10° NE 17:24:58 29° E 17:28:44 10° SSE
ATLAS 5 CENTAUR R/B 4.2 17:23:56 10° NW 17:26:16 13° N 17:28:42 10° NNE
CORIOLIS 4.1 17:20:56 10° SSE 17:26:17 84° ENE 17:31:40 10° NNW
Cosmos 2322 Rocket 3.5 17:22:34 10° WSW 17:27:51 38° NW 17:33:09 10° NNE
Cosmos 2278 Rocket 3.1 17:24:21 10° N 17:29:11 27° NE 17:33:59 10° ESE
YAOGAN 1 2.6 17:25:14 10° SSE 17:29:34 89° W 17:33:56 10° NNW
Cosmos 2219 Rocket 3.2 17:25:35 10° SSE 17:30:11 26° ESE 17:34:47 10° NE
BREEZE M DEB (TANK) 2.0 17:27:26 10° WNW 17:31:20 48° N 17:33:07 14° E
Cosmos 1908 3.2 17:28:47 10° N 17:32:39 63° E 17:36:29 10° SSE
CENTAUR R/B 2.7 17:31:13 10° SSW 17:37:07 56° ESE 17:43:47 10° NE
Cosmos 1844 3.9 17:33:42 10° NNW 17:39:18 50° ENE 17:44:54 10° SE
Cosmos 1484 Rocket 2.8 17:36:51 10° SSE 17:40:42 63° ENE 17:44:38 10° N
Cosmos 389 Rocket 2.6 17:37:20 10° NNW 17:40:58 82° W 17:44:31 10° S
Cosmos 1408 Rocket 3.7 17:37:02 10° S 17:41:29 84° W 17:45:58 10° N
CZ-4 R/B 2.8 17:38:56 10° S 17:42:37 41° W 17:46:19 10° NNW
Tsikada Rocket 4.1 17:37:34 10° S 17:43:56 84° E 17:50:24 10° N
USA 116 4.0 17:43:24 10° N 17:46:44 53° WNW 17:49:48 10° SSW
COSMOS 2428 2.7 17:42:49 10° SSW 17:48:28 65° ESE 17:54:08 10° NNE
Lacrosse 5 rocket 2.5 17:46:25 10° NNW 17:49:28 23° NNE 17:51:00 18° ENE
Cosmos 1674 2.6 17:47:45 10° S 17:51:34 83° E 17:55:25 10° N
Cosmos 2237 4.2 17:48:10 10° SSW 17:53:53 85° ESE 17:59:38 10° NNE
ALOS 3.4 17:51:50 10° ESE 17:55:19 21° ENE 17:58:49 10° NNE
Meteor 2-2 Rocket 4.1 17:51:19 10° N 17:57:00 78° ENE 18:02:37 10° SSE
Cosmos 2237 Rocket 3.1 17:53:11 10° SSE 17:57:47 27° ESE 18:00:18 19° ENE
CZ-4C R/B 4.4 17:56:31 10° NW 18:00:11 16° N 18:04:08 10° NNE
Cosmos 371 Rocket 3.7 17:56:16 10° S 18:00:43 39° ESE 18:03:53 18° NE
SL-16 R/B 4.2 17:59:21 10° ESE 17:59:32 10° ESE 17:59:32 10° ESE
Abrixas rocket 4.2 17:58:53 10° W 18:01:48 28° SW 18:04:43 10° SSE
Cosmos 1743 Rocket 3.5 17:57:29 10° S 18:01:57 78° E 18:06:27 10° NNE
CZ-2C R/B 4.2 17:57:50 10° SSW 18:02:26 35° W 18:06:57 10° NNW
Cosmos 1300 3.0 17:59:09 10° N 18:02:50 43° ENE 18:06:30 10° SSE
Lacrosse 5 2.9 17:59:03 10° W 18:03:49 39° NNW 18:07:33 16° NE
Cosmos 1763 Rocket 3.4 18:02:20 10° SSW 18:07:35 88° ESE 18:12:48 10° NNE
Cosmos 1328 Rocket 3.8 18:03:29 10° NNW 18:07:56 73° W 18:12:21 10° S
Cosmos 1515 Rocket 3.6 18:07:57 10° N 18:12:27 87° W 18:16:55 10° S
Cosmos 1634 Rocket 3.9 18:06:55 10° N 18:13:10 84° E 18:19:20 10° S
SKYMED 2 3.5 18:08:52 10° NNE 18:13:14 89° WNW 18:17:34 10° SSW
Cosmos 1328 3.7 18:09:55 10° S 18:13:47 59° E 18:16:56 15° NNE
Cosmos 2058 3.5 18:11:09 10° SSE 18:14:52 34° E 18:15:32 32° ENE
Cosmos 372 Rocket 4.2 18:10:26 10° N 18:15:21 45° ENE 18:20:13 10° SE
NOAA 12 4.0 18:10:58 10° SSE 18:16:09 68° ENE 18:21:23 10° N
Cosmos 1726 2.0 18:12:57 10° N 18:16:43 66° E 18:20:27 10° SSE
Cosmos 44 Rocket 3.7 18:13:32 10° S 18:18:25 46° ESE 18:20:27 30° ENE
SJ-6B 2.8 18:20:04 10° SSE 18:24:02 63° ENE 18:28:08 10° N
FengYun 1-2 T 4.4 18:22:13 10° SE 18:27:32 47° ENE 18:32:49 10° N
Meteor 1-28 Rocket 3.1 18:24:54 15° N 18:27:57 84° W 18:31:39 10° SSW
Cosmos 1500 Rocket 3.7 18:25:23 10° SSW 18:29:42 75° W 18:34:04 10° N
Cosmos 2151 2.8 18:25:35 10° S 18:29:46 70° E 18:32:22 22° NNE
Cosmos 1151 Rocket 3.0 18:26:21 10° N 18:30:38 81° W 18:34:54 10° S
DMSP B5D1-3 4.5 18:26:01 10° NNE 18:31:09 87° WNW 18:36:14 10° SSW
Cosmos 2333 4.4 18:26:30 10° SW 18:32:06 70° WNW 18:36:53 14° NNE
Cosmos 1844 Rocket 3.5 18:26:50 10° NW 18:32:21 52° WSW 18:37:47 10° S
Cosmos 540 Rocket 3.5 18:28:59 10° S 18:34:00 55° ESE 18:35:55 35° NE
Cosmos 1125 Rocket 3.4 18:30:41 10° NNW 18:35:56 87° WSW 18:41:07 10° SSE
USA 215 3.9 18:29:35 10° SSE 18:36:00 57° SW 18:42:27 10° WNW
BREEZE-M DEB (TANK) 2.7 18:37:00 10° SW 18:38:42 34° SW 18:38:42 34° SW
OTV 4 2.6 18:38:09 10° SW 18:40:16 19° S 18:40:16 19° S
H-2A ROCKET BODY 4.4 18:24:54 10° WSW 18:44:07 28° SSW 18:49:07 14° SE
Cosmos 1980 3.6 18:38:39 10° SSW 18:44:17 68° ESE 18:46:34 36° NE
Resurs 01 Rocket 1.7 18:45:28 54° NE 18:45:28 54° NE 18:49:26 10° N
Cosmos 2360 Rocket 4.1 18:41:12 10° WSW 18:45:50 26° NW 18:50:30 10° N
Spot 2 Rocket 3.4 18:45:07 10° SSE 18:50:06 64° ENE 18:55:06 10° N
Cosmos 2333 Rocket 2.1 18:46:36 10° SSW 18:52:15 90° ESE 18:54:55 33° NNE
Cosmos 1340 Rocket 3.9 18:51:46 10° S 18:54:03 33° S 18:54:03 33° S
Meteor 1-27 4.4 18:50:19 10° NNW 18:56:08 78° W 19:01:56 10° S
NOSS 0 Rocket 3.8 18:50:09 10° SSW 18:56:23 87° ESE 18:59:24 33° NNE
Timation 1 Rocket 4.3 18:51:23 10° NNW 18:57:25 65° ENE 18:58:51 49° ESE
COSMO-SKYMED 1 4.4 18:57:19 10° N 19:01:05 29° WNW 19:04:49 10° SW
FENGYUN 3A 3.5 18:58:39 10° SSE 19:04:00 86° ENE 19:09:25 10° NNW
Cosmos 2279 Rocket 4.3 19:01:41 10° NNW 19:07:50 65° W 19:13:58 10° S
ATLAS 5 CENTAUR R/B 4.3 19:10:37 10° NNW 19:12:39 14° N 19:12:39 14° N
Cosmos 2278 Rocket 2.8 19:08:03 10° NW 19:13:36 55° WSW 19:19:06 10° S
Cosmos 2219 Rocket 2.9 19:08:20 10° SW 19:13:49 51° WNW 19:16:42 27° N
CENTAUR R/B 3.7 19:22:13 10° WSW 19:28:06 38° NW 19:31:08 26° N
Lacrosse 5 rocket 3.3 19:25:12 10° NW 19:26:44 23° NW 19:26:44 23° NW
Nadezhda 4 Rocket 3.9 19:24:49 10° S 19:31:04 90° WNW 19:31:43 74° N
ALOS 3.1 19:27:57 10° S 19:32:27 47° W 19:36:59 10° NNW
Cosmos 44 4.2 19:35:22 10° SW 19:39:29 50° WSW 19:39:29 50° WSW
Cosmos 2237 Rocket 2.9 19:36:04 10° SW 19:41:31 50° WNW 19:42:11 47° NW
SL-16 R/B 3.5 19:38:49 10° SSW 19:41:30 29° SSW 19:41:30 29° SSW
Lacrosse 5 3.9 19:44:03 10° NW 19:46:46 20° NNW 19:46:46 20° NNW
Cosmos 2297 4.3 19:44:40 10° NNW 19:49:33 54° WNW 19:49:33 54° WNW
CZ-4C R/B 4.4 19:46:50 10° NNW 19:49:50 18° N 19:49:50 18° N
Resurs 01 Rocket 4.5 20:23:00 14° WNW 20:23:00 14° WNW 20:24:34 10° NW
Cosmos 2333 Rocket 4.5 20:33:27 10° W 20:36:58 18° NW 20:36:58 18° NW
